Location: Goettingen
(51.5300°N, 9.9433°E)
Time: 14:28:11
(UTC+01:00)

ISS - Pass Details

Date: 28 November 2023
Orbit: 416 x 417 km, 51.6° (Epoch: 02 December)

Event Time Altitude Azimuth Distance (km) Brightness Sun altitude
Rises 19:03:13 0° 283° (WNW) 2,363 1.3 -25.0°
Reaches altitude 10° 19:05:20 10° 279° (W) 1,498 0.0 -25.3°
Enters shadow 19:07:17 30° 263° (W) 772 -1.9 -25.6°
